TimeCST,TemperatureF,Dew PointF,Humidity,Sea Level PressureIn,VisibilityMPH,Wind Direction,Wind SpeedMPH,Gust SpeedMPH,PrecipitationIn,Events,Conditions,WindDirDegrees,DateUTC
12:23 AM,53.6,50.0,88,29.35,10.0,South,12.7,-,N/A,,Mostly Cloudy,170,2013-02-26 06:23:00
12:54 AM,54.0,50.0,86,29.35,10.0,SSW,13.8,-,N/A,,Mostly Cloudy,200,2013-02-26 06:54:00
1:10 AM,53.6,50.0,88,29.36,10.0,SSW,13.8,24.2,N/A,,Scattered Clouds,210,2013-02-26 07:10:00
1:54 AM,53.1,48.9,86,29.36,10.0,SSW,9.2,-,N/A,,Scattered Clouds,200,2013-02-26 07:54:00
2:50 AM,50.0,46.4,87,29.37,10.0,SW,18.4,31.1,N/A,,Mostly Cloudy,230,2013-02-26 08:50:00
2:54 AM,50.0,45.0,83,29.37,10.0,SW,13.8,31.1,N/A,,Mostly Cloudy,230,2013-02-26 08:54:00
3:40 AM,48.2,44.6,87,29.39,10.0,SW,13.8,24.2,N/A,,Overcast,230,2013-02-26 09:40:00
3:54 AM,48.9,44.1,83,29.39,10.0,WSW,11.5,21.9,N/A,,Overcast,240,2013-02-26 09:54:00
4:09 AM,48.2,44.6,87,29.38,10.0,SW,10.4,-,N/A,,Mostly Cloudy,220,2013-02-26 10:09:00
4:26 AM,48.2,44.6,87,29.39,10.0,SW,6.9,-,N/A,,Overcast,220,2013-02-26 10:26:00
4:33 AM,48.2,44.6,87,29.39,10.0,SW,6.9,-,N/A,,Overcast,220,2013-02-26 10:33:00
4:46 AM,48.2,44.6,87,29.39,10.0,SW,9.2,-,N/A,,Overcast,230,2013-02-26 10:46:00
4:54 AM,48.0,42.1,80,29.39,10.0,SW,12.7,24.2,N/A,,Mostly Cloudy,230,2013-02-26 10:54:00
5:01 AM,48.2,41.0,76,29.40,10.0,SW,19.6,28.8,N/A,,Mostly Cloudy,220,2013-02-26 11:01:00
5:19 AM,46.4,39.2,76,29.41,10.0,SW,11.5,25.3,N/A,,Mostly Cloudy,230,2013-02-26 11:19:00
5:54 AM,46.0,39.0,76,29.42,10.0,SW,12.7,21.9,N/A,,Overcast,230,2013-02-26 11:54:00
6:54 AM,45.0,37.9,76,29.43,10.0,SW,13.8,23.0,N/A,,Overcast,230,2013-02-26 12:54:00
7:54 AM,45.0,37.0,74,29.46,10.0,SW,15.0,21.9,0.00,,Overcast,220,2013-02-26 13:54:00
8:54 AM,44.1,36.0,73,29.49,10.0,SW,15.0,24.2,N/A,,Overcast,220,2013-02-26 14:54:00
9:54 AM,45.0,37.0,74,29.50,10.0,SSW,18.4,25.3,N/A,,Overcast,210,2013-02-26 15:54:00
10:54 AM,44.1,37.0,76,29.52,10.0,SW,13.8,25.3,N/A,,Overcast,220,2013-02-26 16:54:00
11:54 AM,42.1,35.1,76,29.54,10.0,WSW,23.0,33.4,N/A,,Overcast,240,2013-02-26 17:54:00
12:54 PM,43.0,35.1,74,29.54,10.0,SW,13.8,24.2,N/A,,Overcast,230,2013-02-26 18:54:00
1:54 PM,43.0,34.0,71,29.56,10.0,WSW,16.1,25.3,0.00,,Overcast,240,2013-02-26 19:54:00
2:28 PM,44.6,33.8,66,29.57,10.0,WSW,11.5,20.7,N/A,,Overcast,250,2013-02-26 20:28:00
2:49 PM,44.6,33.8,66,29.57,10.0,WSW,11.5,23.0,N/A,,Overcast,250,2013-02-26 20:49:00
2:54 PM,44.1,34.0,68,29.58,10.0,WSW,16.1,24.2,N/A,,Overcast,250,2013-02-26 20:54:00
3:06 PM,44.6,33.8,66,29.58,10.0,WSW,18.4,23.0,N/A,,Overcast,240,2013-02-26 21:06:00
3:18 PM,44.6,33.8,66,29.58,10.0,WSW,16.1,25.3,N/A,,Overcast,240,2013-02-26 21:18:00
3:54 PM,45.0,33.1,63,29.60,10.0,WSW,12.7,23.0,N/A,,Overcast,240,2013-02-26 21:54:00
4:54 PM,43.0,32.0,65,29.63,10.0,WSW,18.4,27.6,N/A,,Overcast,250,2013-02-26 22:54:00
5:54 PM,43.0,32.0,65,29.68,10.0,West,16.1,24.2,N/A,,Overcast,260,2013-02-26 23:54:00
6:15 PM,42.8,32.0,66,29.69,10.0,West,15.0,23.0,N/A,,Overcast,260,2013-02-27 00:15:00
6:54 PM,42.1,32.0,67,29.72,10.0,West,10.4,23.0,N/A,,Overcast,260,2013-02-27 00:54:00
7:36 PM,42.8,32.0,66,29.74,10.0,WSW,12.7,23.0,N/A,,Overcast,250,2013-02-27 01:36:00
7:54 PM,42.1,32.0,67,29.75,10.0,West,16.1,21.9,N/A,,Overcast,260,2013-02-27 01:54:00
8:20 PM,42.8,32.0,66,29.76,10.0,West,9.2,23.0,N/A,,Overcast,260,2013-02-27 02:20:00
8:40 PM,42.8,33.8,70,29.77,10.0,West,11.5,20.7,N/A,,Overcast,260,2013-02-27 02:40:00
8:54 PM,42.1,32.0,67,29.78,10.0,WSW,10.4,20.7,N/A,,Overcast,250,2013-02-27 02:54:00
9:54 PM,42.1,32.0,67,29.80,10.0,WSW,10.4,23.0,N/A,,Overcast,250,2013-02-27 03:54:00
10:54 PM,41.0,32.0,70,29.81,10.0,West,11.5,18.4,N/A,,Overcast,260,2013-02-27 04:54:00
11:54 PM,41.0,32.0,70,29.83,10.0,West,9.2,-,N/A,,Overcast,260,2013-02-27 05:54:00
11:58 PM,42.8,32.0,66,29.83,10.0,West,11.5,-,N/A,,Overcast,260,2013-02-27 05:58:00